| time (UTC) | temp F | wind direction | speed knots | gust knots | rain 1hr in | rain 24hr in | rain mn in | humidity % | barometer mb |
| 20260504201555 | 66 | 312 | 5.2 | 14.8 | 0.00 | 0.00 | 0.00 | 38 | 1004.3 |
| 20260504200039 | 66 | 280 | 2.6 | 14.8 | 0.00 | 0.00 | 0.00 | 40 | 1004.2 |
| 20260504194535 | 65 | 206 | 3.5 | 13.0 | 0.00 | 0.00 | 0.00 | 42 | 1004.5 |
| 20260504193033 | 64 | 330 | 4.3 | 13.0 | 0.00 | 0.00 | 0.00 | 44 | 1004.7 |
| 20260504191532 | 65 | 275 | 3.5 | 9.6 | 0.00 | 0.00 | 0.00 | 44 | 1004.6 |
| 20260504190029 | 64 | 294 | 5.2 | 10.4 | 0.00 | 0.00 | 0.00 | 45 | 1004.9 |
| 20260504184528 | 63 | 205 | 8.7 | 19.1 | 0.00 | 0.00 | 0.00 | 45 | 1005.1 |
| 20260504183023 | 62 | 234 | 3.5 | 13.0 | 0.00 | 0.00 | 0.00 | 49 | 1005.0 |
| 20260504181527 | 60 | 182 | 4.3 | 13.9 | 0.00 | 0.00 | 0.00 | 51 | 1005.3 |
| 20260504180019 | 59 | 302 | 4.3 | 10.4 | 0.00 | 0.00 | 0.00 | 54 | 1005.5 |
| 20260504174520 | 59 | 261 | 4.3 | 12.2 | 0.00 | 0.00 | 0.00 | 52 | 1005.6 |
| 20260504173019 | 60 | 304 | 4.3 | 9.6 | 0.00 | 0.00 | 0.00 | 49 | 1005.7 |
| 20260504171518 | 61 | 306 | 3.5 | 11.3 | 0.00 | 0.00 | 0.00 | 50 | 1005.5 |
| 20260504140110 | 56 | 249 | 1.7 | 13.9 | 0.00 | 0.00 | 0.00 | 59 | 1006.3 |
| 20260504081503 | 36 | 117 | 0.9 | 4.3 | 0.00 | 0.00 | 0.00 | 79 | 1008.5 |
| 20260504044537 | 32 | 266 | 0.9 | 2.6 | 0.00 | 0.01 | 0.00 | 85 | 1008.0 |
| 20260504043035 | 33 | 259 | 0.9 | 2.6 | 0.00 | 0.01 | 0.00 | 84 | 1007.9 |
| 20260504041532 | 33 | 242 | 0.0 | 1.7 | 0.00 | 0.01 | 0.00 | 83 | 1007.8 |
| 20260504040028 | 34 | 242 | 0.9 | 2.6 | 0.00 | 0.01 | 0.00 | 80 | 1007.7 |
| 20260504034532 | 35 | 224 | 0.9 | 1.7 | 0.00 | 0.04 | 0.01 | 77 | 1007.6 |
| 20260504033034 | 37 | 223 | 0.0 | 1.7 | 0.00 | 0.04 | 0.01 | 73 | 1007.6 |
| 20260504031518 | 39 | 161 | 0.0 | 1.7 | 0.00 | 0.04 | 0.01 | 67 | 1007.6 |
| 20260504030018 | 41 | 138 | 0.0 | 3.5 | 0.00 | 0.04 | 0.01 | 63 | 1007.5 |
| 20260504024538 | 41 | 163 | 0.9 | 4.3 | 0.00 | 0.10 | 0.01 | 61 | 1007.5 |
| 20260504023017 | 40 | 283 | 0.9 | 3.5 | 0.00 | 0.10 | 0.01 | 63 | 1007.6 |
| 20260504021517 | 41 | 283 | 0.9 | 2.6 | 0.00 | 0.10 | 0.01 | 61 | 1007.7 |
| 20260504020016 | 42 | 283 | 0.0 | 2.6 | 0.00 | 0.10 | 0.01 | 60 | 1007.6 |
| 20260504014516 | 43 | 147 | 0.9 | 5.2 | 0.00 | 0.10 | 0.01 | 58 | 1007.6 |
| 20260504013017 | 43 | 271 | 0.9 | 3.5 | 0.00 | 0.10 | 0.01 | 57 | 1007.5 |
| 20260504011515 | 44 | 208 | 1.7 | 10.4 | 0.00 | 0.10 | 0.01 | 56 | 1007.5 |
| 20260504010015 | 44 | 246 | 1.7 | 8.7 | 0.00 | 0.10 | 0.01 | 55 | 1007.3 |
| 20260504004532 | 44 | 274 | 4.3 | 7.0 | 0.00 | 0.10 | 0.01 | 56 | 1007.1 |
| 20260504003013 | 43 | 250 | 0.9 | 4.3 | 0.00 | 0.10 | 0.01 | 57 | 1006.9 |
| 20260504001514 | 43 | 233 | 0.9 | 3.5 | 0.00 | 0.10 | 0.01 | 58 | 1006.7 |
| 20260504000013 | 44 | 273 | 1.7 | 4.3 | 0.00 | 0.10 | 0.01 | 58 | 1006.6 |
| 20260503234512 | 44 | 306 | 0.0 | 4.3 | 0.00 | 0.10 | 0.01 | 56 | 1006.4 |
| 20260503233012 | 45 | 275 | 1.7 | 9.6 | 0.00 | 0.10 | 0.01 | 54 | 1006.3 |
| 20260503231512 | 45 | 289 | 0.9 | 9.6 | 0.00 | 0.10 | 0.01 | 54 | 1006.3 |
| 20260503230016 | 46 | 316 | 2.6 | 16.5 | 0.00 | 0.10 | 0.01 | 54 | 1006.3 |
| 20260503224511 | 46 | 287 | 0.9 | 5.2 | 0.00 | 0.10 | 0.01 | 52 | 1006.3 |
| 20260503223010 | 47 | 339 | 2.6 | 8.7 | 0.00 | 0.10 | 0.01 | 52 | 1006.0 |
| 20260503221510 | 46 | 318 | 1.7 | 8.7 | 0.00 | 0.10 | 0.01 | 51 | 1005.9 |
| 20260503220010 | 48 | 336 | 3.5 | 9.6 | 0.00 | 0.10 | 0.01 | 50 | 1005.7 |
| 20260503214508 | 47 | 325 | 3.5 | 9.6 | 0.00 | 0.10 | 0.01 | 51 | 1005.7 |
| 20260503213013 | 46 | 305 | 4.3 | 11.3 | 0.00 | 0.10 | 0.01 | 53 | 1005.8 |
| 20260503211508 | 46 | 313 | 5.2 | 9.6 | 0.00 | 0.10 | 0.01 | 52 | 1005.7 |
| 20260503210008 | 47 | 355 | 5.2 | 12.2 | 0.00 | 0.10 | 0.01 | 48 | 1005.6 |
| 20260503204507 | 48 | 307 | 4.3 | 10.4 | 0.00 | 0.10 | 0.01 | 48 | 1005.6 |
| 20260503203006 | 47 | 298 | 4.3 | 14.8 | 0.00 | 0.10 | 0.01 | 48 | 1005.4 |